Miscellaneous Local Product
Issued by NWS Hastings, NE

Home | Current Version | Previous Version | Graphics & Text | Print | Product List | Glossary On
Versions: 1 2 3 4 5 6 7 8 9 10 11 12 13 14 15 16 17 18 19 20 21 22 23 24 25 26 27 28 29 30 31 32 33 34 35 36 37 38 39 40 41 42 43 44 45 46 47 48 49 50
000
AXUS43 KGID 291702
MISGRI

GID CWA HOURLY WEATHER ROUNDUP
NATIONAL WEATHER SERVICE HASTINGS NE
1200 PM CDT SUN MAR 29 2015

NOTE: "FAIR" INDICATES FEW OR NO CLOUDS BELOW 12,000 FEET WITH NO
SIGNIFICANT WEATHER AND/OR OBSTRUCTIONS TO VISIBILITY.

...SOUTH CENTRAL NEBRASKA...

CITY           SKY/WX    TMP DP  RH WIND       PRES   REMARKS
GRAND ISLAND   SUNNY     58  34  40 NW29G45   30.09R
HASTINGS       SUNNY     61  35  37 NW31G40   30.08R
KEARNEY        SUNNY     59  34  38 N24G37    30.12R
ORD            SUNNY     57  31  37 NW31G45   30.08R
YORK           MOSUNNY   59  37  44 NW31G41   30.05R
AURORA         SUNNY     59  35  41 NW32G41   30.07R
LEXINGTON      SUNNY     59  31  34 NW26G41   30.16R
HOLDREGE       SUNNY     59  29  32 NW22G38   30.13R
HEBRON         SUNNY     63  33  33 N24G35    30.05R

...NEBRASKA PANHANDLE...

CITY           SKY/WX    TMP DP  RH WIND       PRES   REMARKS
CHADRON        SUNNY     55  26  32 NW16G25   30.23S
ALLIANCE       SUNNY     54  25  32 N20G26    30.23S
SCOTTSBLUFF    SUNNY     57  27  31 NW24G33   30.27F
SIDNEY         SUNNY     54  25  32 N35G46    30.24S

...WESTERN AND NORTH CENTRAL NEBRASKA...

CITY           SKY/WX    TMP DP  RH WIND       PRES   REMARKS
VALENTINE      SUNNY     51  18  27 NW26G37   30.16R
AINSWORTH      SUNNY     53  18  25 N32G40    30.15R
ONEILL         PTSUNNY   51  35  52 NW33G41   30.08R
BROKEN BOW     SUNNY     58  29  33 N29G43    30.13R
IMPERIAL         N/A     58  28  32 N26G35    30.23R
NORTH PLATTE   SUNNY     57  26  30 N28G37    30.19R
MCCOOK         SUNNY     62  28  27 N28G40    30.18R

...EASTERN NEBRASKA...

CITY           SKY/WX    TMP DP  RH WIND       PRES   REMARKS
NORFOLK        CLOUDY    48  37  65 NW32G44   30.02R
SO SIOUX CITY  CLOUDY    49  37  63 NW22G35   29.95R
TEKAMAH        CLOUDY    53  39  59 NW21G44   29.99R
COLUMBUS       CLOUDY    52  36  54 NW29G40   30.06R
ALBION         CLOUDY    51  33  51 NW35G44   30.06R
OMAHA EPPLEY   PTSUNNY   60  39  45 NW31G43   29.94R
OFFUTT AFB     PTSUNNY   60  39  44 NW29G36   29.95R
MILLARD        MOSUNNY   58  39  48 NW35G43   29.98R
LINCOLN        CLOUDY    60  38  43 NW32G41   30.02R
NEBRASKA CITY  MOSUNNY   62  34  34 NW28G40   29.97R
BEATRICE       MOSUNNY   63  39  41 NW30G37   30.02R
FALLS CITY     MOSUNNY   64  38  38 NW28G37   29.97S

...NORTHERN KANSAS...

CITY           SKY/WX    TMP DP  RH WIND       PRES   REMARKS
GOODLAND       SUNNY     58  27  30 NW20G36   30.24S
HILL CITY      SUNNY     65  28  24 N24G36    30.16R
NORTON         SUNNY     63  19  19 NW23G30   30.15R
PHILLIPSBURG   SUNNY     64  28  25 NW23G35   30.14R HAZE
SMITH CENTER   SUNNY     63  32  31 NW29G36   30.11R
BELOIT         SUNNY     66  34  30 N28G38    30.07R
HAYS           MOSUNNY   64  27  24 N31G39    30.13R
RUSSELL        MOSUNNY   66  30  26 NW28G41   30.10R
CONCORDIA      MOSUNNY   66  35  31 N22G35    30.06R
SALINA         PTSUNNY   67  38  34 N13       30.05R
TOPEKA         CLOUDY    60  45  57 SW8       30.01R



USA.gov is the U.S. government's official web portal to all federal, state and local government web resources and services.